ONEWEB-0276, 48994

Orbit data source: Space-Track

ONEWEB-0276, 48994 is a payload satellite owned by One Web (NAA) (UK) in LEO that was launched on Thu, 01 Jul 2021 UTC via a SOYUZ-2-1B launch vehicle from the Vostochny Cosmodrome (VOSTO). Payload-class satellites include a variety of spacecraft equipped with specific instruments for various scientific and technological missions. These include communications satellites like Starlink; space stations such as the ISS; scientific satellites like the Hubble; Earth observation satellites from companies like Planet Labs, Umbra, and HawkEye 360; GPS; miniature CubeSats for education and research; and military/defense satellites.

Loading next visibility...
Identifier
48994, 2021-060AD
Orbit
LEO
Country
Flag of UKUK
Related business
Manufacturer
One Web
Mission
Operational Commercial Communications
Bus & Motor
ARROW, Unknown motor
Mass
148 kg wet, ~140 kg dry
Launch date (UTC)
2021-07-01 (4 years ago)
Launch vehicle
SOYUZ-2-1B
Launch site
Vostochny Cosmodrome (VOSTO)
Object type
Payload
Rocket body
Debris
Shape & HBR
Trap Box + 2 Pan, 6.7 m
Radar Cross Section
3.464 m², Large (>1 m²)

Expand to show TLE details & history
Last TLE update: 9 hours ago

TLE from 9 hours ago
0 ONEWEB-0276
1 48994U 21060AD  25349.80600768 -.00000089  00000-0 -26730-3 0  9991
2 48994  87.9046 265.2896 0001648  68.0499 292.0807 13.16595795215448
Epoch: 2025-12-15T19:20Z
TLE epoch observation values (Epoch: 2025-12-15T19:20:39.063Z)
Latitude
-0.00002°
Longitude
-109.57246°
Altitude
1,200.178 km
Speed
7.254 km/s
True Right ascension
17h 41m 09s
True Declination
0° 00' 00"
Sunlit
Object was in daylight at epoch
Visualization orbit readout
Latitude
Unknown
Longitude
Unknown
Altitude
Unknown
Speed
Unknown
Apparent Right ascension
Unknown
Apparent Declination
Unknown
Sunlit
N/A
Visualization observer readout
Local Sidereal Time
03:10:45
Azimuth
Unknown
Elevation
Unknown
Doppler factor
Unknown
Orbital elements
Apogee altitude
1,196.109 km
Perigee altitude
1,193.613 km
Semi-major axis
7,572.998 km
Eccentricity
0.00016
Inclination
87.9046°
RAAN
265.2896°
Arg. of periapsis
68.0499°
True anomaly
292.0632°
Mean anomaly
292.0807°
Eccentric anomaly
292.07195°
Mean motion
3.29338 °/min
Orbital period
109.31 mins
BSTAR
-0.0002673
Loading maneuver chart data...
Computing Atmospheric mass density...
Loading historical data...
Loading historical data...
Loading historical data...
Loading historical data...
Loading historical data...
Loading historical data...
Loading historical data...

Documentation

Showing up to 5 results
|